SSEC Globe Logo

Space Science and Engineering Center

Wisconsin State Observations

ASUS43 KMKX 220800                                              2019234 0800
RWRWI
WISCONSIN REGIONAL WEATHER ROUNDUP
NATIONAL WEATHER SERVICE MILWAUKEE/SULLIVAN WI
NOTE: "FAIR" INDICATES FEW OR NO CLOUDS BELOW 12,000 FEET WITH NO
SIGNIFICANT WEATHER AND/OR OBSTRUCTIONS TO VISIBILITY.

CITY           SKY/WX    TMP DP  RH WIND       PRES   REMARKS
SUPERIOR ARPT  CLOUDY    52  51  96 CALM      30.06S
ASHLAND        CLOUDY    53  52  96 CALM      30.06S
HAYWARD        CLOUDY    52  50  93 CALM      30.06F
SIREN          CLOUDY    55  51  86 CALM      30.06S
CUMBERLAND     CLOUDY    55  52  88 CALM      30.06S
RICE LAKE      CLOUDY    56  41  58 CALM      30.07S
CHETEK         CLOUDY    59  55  85 N5        30.05S
LADYSMITH      CLOUDY    58  54  87 CALM      30.06F
EAU CLAIRE     NOT AVBL
MENOMONIE      CLOUDY    57  52  83 W5        30.04F
NEW RICHMOND   CLOUDY    58  54  85 CALM      30.06S
OSCEOLA        CLOUDY    58  57  99 CALM      30.09S


CITY           SKY/WX    TMP DP  RH WIND       PRES   REMARKS
MANITOWISH WTR CLOUDY    48  48 100 CALM      30.06S
ARBOR VITAE    CLOUDY    52  49  89 CALM      30.06R
WOODRUFF       CLOUDY    52  49  89 CALM      30.06R
RHINELANDER    CLOUDY    50  48  93 CALM      30.07R
EAGLE RIVER    MOCLDY    45  45 100 CALM      30.06R
LAND O LAKES   FAIR      42  42 100 CALM      30.08R FOG
PHILLIPS       CLOUDY    51  51 100 CALM      30.05S
TOMAHAWK       CLOUDY    46  45  97 CALM      30.06S
MEDFORD        CLOUDY    53  52  97 CALM      30.04F
MERRILL        CLOUDY    47  47 100 CALM      30.06S


CITY           SKY/WX    TMP DP  RH WIND       PRES   REMARKS
WAUSAU         CLOUDY    53  51  93 CALM      30.03S
MOSINEE        CLOUDY    52  52 100 CALM      30.05F
MARSHFIELD     CLOUDY    55  52  89 CALM      30.03F
STEVENS POINT  FAIR      46  46 100 CALM      30.05S
WAUPACA        FAIR      52  50  95 CALM      30.03F
WAUTOMA        FAIR      51  49  92 CALM      30.04F
WISC RAPIDS    FAIR      53  50  89 CALM      30.04F
CAMP DOUGLAS   FAIR      48  48 100 CALM      30.04S


CITY           SKY/WX    TMP DP  RH WIND       PRES   REMARKS
ANTIGO         CLOUDY    46  46  99 CALM      30.06S
SHAWANO        FAIR      52  50  93 CALM      30.04S
OCONTO         FAIR      49  48  95 CALM      30.03S
STURGEON BAY   FAIR      55  53  93 CALM      30.04R
GREEN BAY      FAIR      54  51  90 N3        30.02F
MANITOWOC      FAIR      56  53  90 CALM      30.03S
APPLETON       FAIR      55  43  62 N3        30.02S
CLINTONVILLE   FAIR      50  47  92 CALM      30.04S
OSHKOSH        FAIR      57  51  80 CALM      30.02S


CITY           SKY/WX    TMP DP  RH WIND       PRES   REMARKS
LA CROSSE      FAIR      59  55  87 SE5       30.03F
SPARTA         MOCLDY    47  46  99 CALM      30.05F
VIROQUA        FAIR      56  56 100 CALM      30.05S
BOSCOBEL       FOG       54  52  93 CALM      30.03F VSB 1/2
PRAIRIE DU CHI FAIR      56  54  95 CALM      30.03F
PLATTEVILLE    FAIR      57  57 100 N3        30.03S

CITY           SKY/WX    TMP DP  RH WIND       PRES   REMARKS
REEDSBURG      FAIR      55  55 100 CALM      30.04S
BARABOO/DELLS  FAIR      53  51  94 CALM      30.04S
LONE ROCK      NOT AVBL
MINERAL POINT    N/A     57  55  94 MISG      30.03F
MADISON        FAIR      57  52  83 CALM      30.01F
MIDDLETON      FAIR      56  53  89 CALM      30.03F
WATERTOWN      FAIR      58  55  87 CALM      30.01F
MONROE         FAIR      62  55  77 N3        30.01F
JANESVILLE     FAIR      59  59 100 NW3       30.00F


CITY           SKY/WX    TMP DP  RH WIND       PRES   REMARKS
MILWAUKEE      MOCLDY    66  54  65 N9        29.98F
WAUKESHA       FAIR      59  50  72 N5        30.01F
MILWAUKEE/TIMM FAIR      59  48  67 N6        30.00F
RACINE         FAIR      68  59  73 N10       29.99F
KENOSHA        FAIR      65  58  78 N6        29.98F
FOND DU LAC    FAIR      61  50  67 N3        30.02F
SHEBOYGAN      MOCLDY    59  53  80 N3        30.01F
WEST BEND      MOCLDY    59  52  77 N5        30.02F
JUNEAU         FAIR      57  51  81 CALM      30.03F
LSZ147-162-220900-
LAKE SUPERIOR

STATION/POSITION TIME  TEMP    WIND        PRES    WAVE
                       AIR SEA DIR/SP/G            HT/PER
                 (UTC) (F)     (DEG/KT/KT) (MB)    (FT/S)
W MID LAKE BUOY  0650   62 63   30/ 10/ 12 1016.9R   1/ 3
DEVILS ISLAND    0700   62      60/ 12/ 14 1017.6R
SAXON HARBOR     0740   54     190/  5/  8 1016.9S

LMZ867-665-643>646-220900-
LAKE MICHIGAN

STATION/POSITION TIME  TEMP    WIND        PRES    WAVE
                       AIR SEA DIR/SP/G            HT/PER
                 (UTC) (F)     (DEG/KT/KT) (MB)    (FT/S)
S GREEN BAY BUOY 0730   71 70   90/  8/ 10 1016.8S
N MID LAKE BUOY  0740   64 70  350/ 12/ 16 1016.7R
NORTHPORT PIER   0740   64     350/  3/  4 1016.3S
KEWAUNEE LAKESHO 0730   61      CALM  /  1 1016.0S
SHEBOYGAN LAKESH 0700   69      50/ 16/ 17 1016.4R
PORT WASHINGTON  0740   64     340/  6/ 10 1016.9F
S MID LAKE BUOY  0740   72 74   10/  6/  8 1015.0F
KENOSHA   LAKESH 0700   69     340/  8/  9 1014.9
TC  - TEMPERATURE IN CELSIUS
VSB - VISIBILITY IN STATUTE MILES
WCI - WIND CHILL INDEX
HX  - HEAT INDEX